Hourly Data Report for October 04, 2014

All times are specified in Local Standard Time (LST). Add 1 hour to adjust for Daylight Saving Time where and when it is observed.

PETAWAWA AWOS 2
ONTARIO

45°57'00.000" N
77°19'00.000" W
130.10 m
6106396
71625
YWA

Download Data

Hourly Data (October 2014)
Hourly Data Report for October 4, 2014
Temp Definition
°C
Dew Point Temp Definition
°C
Rel Hum Definition
%
Wind Dir Definition
10's deg

Wind Spd Definition
km/h
Visibility Definition
km
Stn Press Definition
kPa
Hmdx Definition


Wind Chill Definition


Weather Definition


TIME
00:00 16.6 14.1 85 14 19 9.7 98.35     Rain
01:00 16.7 13.9 84 14 19 14.5 98.27     LegendNANA
02:00 17.0 13.9 82 14 19 14.5 98.16     Rain
03:00 17.0 13.9 82 13 22 14.5 98.13     Rain
04:00 16.7 13.9 84 14 17 14.5 98.08     Drizzle
05:00 13.3 11.3 88 32 4 2.4 98.17     Rain
06:00 12.7 10.9 89 24 6 5.6 98.23     Moderate Rain
07:00 12.9 11.2 89 12 6 14.5 98.16     Rain
08:00 13.2 11.3 88 18 6 14.5 98.23     LegendNANA
09:00 13.5 11.5 88 18 7 8.0 98.23     Rain
10:00 13.8 11.7 87 14 7 14.5 98.20     Rain
11:00 14.2 12.0 87 16 9 14.5 98.17     Rain
12:00 14.9 12.3 84 17 9 14.5 98.13     Rain
13:00 13.1 10.5 84 22 7 2.3 98.16     Moderate Rain
14:00 12.4 9.1 80 22 6 14.5 98.21     Rain
15:00 12.1 9.1 82   0 14.5 98.21     LegendNANA
16:00 11.4 6.2 70 24 17 14.5 98.28     Rain
17:00 10.8 7.1 78 25 4 14.5 98.34     LegendNANA
18:00 10.0 6.3 78 25 4 14.5 98.38     LegendNANA
19:00 8.9 6.4 84 20 4 14.5 98.43     LegendNANA
20:00 9.0 5.0 76 25 6 14.5 98.51     LegendNANA
21:00 7.5 4.6 82 22 4 14.5 98.55     LegendNANA
22:00 6.5 3.2 79 22 7 14.5 98.53     LegendNANA
23:00                    

Notes on Data Quality.

Legend

  • E = Estimated
  • M = Missing
  • NA = Not Available
  • ‡ = Partner data that is not subject to review by the National Climate Archives
Date modified: